Time,TemperatureF,DewpointF,PressureIn,WindDirection,WindDirectionDegrees,WindSpeedMPH,WindSpeedGustMPH,Humidity,HourlyPrecipIn,Conditions,Clouds,dailyrainin,SoftwareType,DateUTC
2013-04-14 00:00:00,48.9,46.4,29.94,South,188,5.0,6.0,91,0.00,,SCT100,0.01,VWS V14.01,2013-04-14 04:00:00,
2013-04-14 00:05:00,48.9,46.4,29.95,South,190,4.0,4.0,91,0.00,,BKN100,0.00,VWS V14.01,2013-04-14 04:05:00,
2013-04-14 00:10:00,48.8,46.6,29.95,South,188,3.0,3.0,92,0.00,,BKN100,0.00,VWS V14.01,2013-04-14 04:10:00,
2013-04-14 00:15:00,48.8,46.6,29.95,South,184,4.0,5.0,92,0.00,,BKN100,0.00,VWS V14.01,2013-04-14 04:15:00,
2013-04-14 00:20:00,48.9,46.7,29.95,SSE,163,5.0,5.0,92,0.00,,BKN100,0.00,VWS V14.01,2013-04-14 04:20:00,
2013-04-14 00:25:00,48.9,46.7,29.95,SSW,198,3.0,5.0,92,0.00,,OVC090,0.00,VWS V14.01,2013-04-14 04:25:00,
2013-04-14 00:30:00,49.0,46.8,29.95,SSW,192,5.0,6.0,92,0.00,,OVC090,0.00,VWS V14.01,2013-04-14 04:30:00,
2013-04-14 00:35:00,49.0,46.8,29.95,SSW,192,4.0,7.0,92,0.00,,OVC090,0.00,VWS V14.01,2013-04-14 04:35:00,
2013-04-14 00:40:00,49.0,46.8,29.96,South,190,6.0,8.0,92,0.00,,OVC090,0.00,VWS V14.01,2013-04-14 04:40:00,
2013-04-14 00:45:00,48.9,46.7,29.96,South,187,3.0,7.0,92,0.00,,OVC090,0.00,VWS V14.01,2013-04-14 04:45:00,
2013-04-14 00:50:00,48.9,46.7,29.96,South,185,3.0,7.0,92,0.00,,OVC090,0.00,VWS V14.01,2013-04-14 04:50:00,
2013-04-14 00:55:00,48.9,47.0,29.96,SSW,202,4.0,6.0,93,0.00,,OVC090,0.00,VWS V14.01,2013-04-14 04:55:00,
2013-04-14 01:00:00,48.9,46.7,29.96,SSW,192,4.0,4.0,92,0.00,,OVC090,0.00,VWS V14.01,2013-04-14 05:00:00,
2013-04-14 01:05:00,48.9,47.0,29.96,SSE,165,2.0,4.0,93,0.00,,OVC090,0.00,VWS V14.01,2013-04-14 05:05:00,
2013-04-14 01:10:00,48.8,46.9,29.96,South,175,4.0,4.0,93,0.00,,OVC090,0.00,VWS V14.01,2013-04-14 05:10:00,
2013-04-14 01:15:00,48.7,46.8,29.97,SSE,167,3.0,5.0,93,0.00,,OVC090,0.00,VWS V14.01,2013-04-14 05:15:00,
2013-04-14 01:20:00,48.7,46.8,29.96,SE,141,5.0,5.0,93,0.00,,OVC090,0.00,VWS V14.01,2013-04-14 05:20:00,
2013-04-14 01:25:00,48.6,46.7,29.97,SSE,163,2.0,3.0,93,0.00,,OVC090,0.00,VWS V14.01,2013-04-14 05:25:00,
2013-04-14 01:30:00,48.5,46.6,29.97,SSE,162,1.0,2.0,93,0.00,,OVC090,0.00,VWS V14.01,2013-04-14 05:30:00,
2013-04-14 01:35:00,48.4,46.2,29.97,SE,142,4.0,4.0,92,0.00,,OVC090,0.00,VWS V14.01,2013-04-14 05:35:00,
2013-04-14 01:40:00,48.3,46.4,29.97,SSE,155,3.0,3.0,93,0.00,,OVC090,0.00,VWS V14.01,2013-04-14 05:40:00,
2013-04-14 01:45:00,48.2,46.3,29.97,SSE,161,2.0,3.0,93,0.00,,OVC090,0.00,VWS V14.01,2013-04-14 05:45:00,
2013-04-14 01:50:00,48.1,46.2,29.97,SSE,168,1.0,2.0,93,0.00,,OVC090,0.00,VWS V14.01,2013-04-14 05:50:00,
2013-04-14 01:55:00,48.0,46.1,29.97,South,180,3.0,3.0,93,0.00,,OVC090,0.00,VWS V14.01,2013-04-14 05:55:00,
2013-04-14 02:00:00,47.9,46.0,29.97,SSE,167,4.0,4.0,93,0.00,,OVC090,0.00,VWS V14.01,2013-04-14 06:00:00,
2013-04-14 02:05:00,47.9,46.0,29.97,SSW,200,4.0,4.0,93,0.00,,OVC090,0.00,VWS V14.01,2013-04-14 06:05:00,
2013-04-14 02:10:00,47.9,46.0,29.97,SSW,202,3.0,4.0,93,0.00,,OVC090,0.00,VWS V14.01,2013-04-14 06:10:00,
2013-04-14 02:15:00,47.8,45.9,29.97,SSW,197,0.0,1.0,93,0.00,,OVC090,0.00,VWS V14.01,2013-04-14 06:15:00,
2013-04-14 02:20:00,47.7,45.8,29.97,SSW,198,0.0,1.0,93,0.00,,OVC090,0.00,VWS V14.01,2013-04-14 06:20:00,
2013-04-14 02:25:00,47.6,45.7,29.97,SSW,197,1.0,2.0,93,0.00,,SCT090,0.00,VWS V14.01,2013-04-14 06:25:00,
2013-04-14 02:30:00,47.4,45.5,29.97,SSW,197,0.0,0.0,93,0.00,,SCT090,0.00,VWS V14.01,2013-04-14 06:30:00,
2013-04-14 02:35:00,47.2,45.3,29.97,SW,220,0.0,0.0,93,0.00,,SCT090,0.00,VWS V14.01,2013-04-14 06:35:00,
2013-04-14 02:40:00,46.9,45.0,29.97,SW,220,0.0,0.0,93,0.00,,SCT090,0.00,VWS V14.01,2013-04-14 06:40:00,
2013-04-14 02:45:00,46.7,44.8,29.97,SW,220,0.0,0.0,93,0.00,,CLR,0.00,VWS V14.01,2013-04-14 06:45:00,
2013-04-14 02:50:00,46.4,44.5,29.97,SW,220,0.0,0.0,93,0.00,,CLR,0.00,VWS V14.01,2013-04-14 06:50:00,
2013-04-14 02:55:00,46.3,44.4,29.97,SW,220,0.0,0.0,93,0.00,,CLR,0.00,VWS V14.01,2013-04-14 06:55:00,
2013-04-14 03:00:00,46.2,44.3,29.97,SW,220,0.0,0.0,93,0.00,,CLR,0.00,VWS V14.01,2013-04-14 07:00:00,
2013-04-14 03:05:00,46.0,44.4,29.97,SW,220,0.0,0.0,94,0.00,,CLR,0.00,VWS V14.01,2013-04-14 07:05:00,
2013-04-14 03:10:00,46.0,44.4,29.97,SW,220,0.0,0.0,94,0.00,,CLR,0.00,VWS V14.01,2013-04-14 07:10:00,
2013-04-14 03:15:00,45.9,44.3,29.97,SW,220,0.0,0.0,94,0.00,,CLR,0.00,VWS V14.01,2013-04-14 07:15:00,
2013-04-14 03:20:00,45.9,44.3,29.97,SW,220,0.0,0.0,94,0.00,,CLR,0.00,VWS V14.01,2013-04-14 07:20:00,
2013-04-14 03:25:00,45.9,44.5,29.97,SW,220,0.0,0.0,95,0.00,,CLR,0.00,VWS V14.01,2013-04-14 07:25:00,
2013-04-14 03:30:00,46.0,44.7,29.97,SW,220,0.0,0.0,95,0.00,,CLR,0.00,VWS V14.01,2013-04-14 07:30:00,
2013-04-14 03:35:00,46.0,44.7,29.97,SW,220,0.0,0.0,95,0.00,,CLR,0.00,VWS V14.01,2013-04-14 07:35:00,
2013-04-14 03:40:00,45.9,44.5,29.96,South,169,2.0,2.0,95,0.00,,CLR,0.00,VWS V14.01,2013-04-14 07:40:00,
2013-04-14 03:45:00,46.0,44.7,29.96,SSE,167,2.0,2.0,95,0.00,,FEW024,0.00,VWS V14.01,2013-04-14 07:45:00,
2013-04-14 03:50:00,46.0,44.7,29.96,SSE,167,1.0,2.0,95,0.00,,FEW024,0.00,VWS V14.01,2013-04-14 07:50:00,
2013-04-14 03:55:00,46.1,45.0,29.96,SSE,167,2.0,3.0,96,0.00,,FEW024,0.00,VWS V14.01,2013-04-14 07:55:00,
2013-04-14 04:00:00,46.2,45.1,29.97,SSE,147,3.0,3.0,96,0.00,,FEW024,0.00,VWS V14.01,2013-04-14 08:00:00,
2013-04-14 04:05:00,46.3,45.2,29.96,SSE,149,2.0,3.0,96,0.00,,CLR,0.00,VWS V14.01,2013-04-14 08:05:00,
2013-04-14 04:10:00,46.4,45.3,29.97,South,169,2.0,4.0,96,0.00,,CLR,0.00,VWS V14.01,2013-04-14 08:10:00,
2013-04-14 04:15:00,46.5,45.4,29.97,SSE,167,3.0,3.0,96,0.00,,CLR,0.00,VWS V14.01,2013-04-14 08:15:00,
2013-04-14 04:20:00,46.6,45.5,29.97,South,172,4.0,4.0,96,0.00,,CLR,0.00,VWS V14.01,2013-04-14 08:20:00,
2013-04-14 04:25:00,46.7,45.6,29.97,SSE,161,3.0,5.0,96,0.00,,CLR,0.00,VWS V14.01,2013-04-14 08:25:00,
2013-04-14 04:30:00,46.8,45.7,29.97,South,174,3.0,4.0,96,0.00,,CLR,0.00,VWS V14.01,2013-04-14 08:30:00,
2013-04-14 04:35:00,46.8,45.7,29.97,SSE,155,3.0,3.0,96,0.00,,CLR,0.00,VWS V14.01,2013-04-14 08:35:00,
2013-04-14 04:40:00,46.7,45.3,29.97,SSE,157,2.0,3.0,95,0.00,,CLR,0.00,VWS V14.01,2013-04-14 08:40:00,
2013-04-14 04:45:00,46.7,45.6,29.97,SSE,157,3.0,4.0,96,0.00,,CLR,0.00,VWS V14.01,2013-04-14 08:45:00,
2013-04-14 04:50:00,46.7,45.6,29.97,SSE,151,3.0,3.0,96,0.00,,CLR,0.00,VWS V14.01,2013-04-14 08:50:00,
2013-04-14 04:55:00,46.7,45.6,29.97,SSE,161,2.0,4.0,96,0.00,,CLR,0.00,VWS V14.01,2013-04-14 08:55:00,
2013-04-14 05:00:00,46.6,45.5,29.97,SSE,152,4.0,4.0,96,0.00,,CLR,0.00,VWS V14.01,2013-04-14 09:00:00,
2013-04-14 05:05:00,46.5,45.4,29.97,SE,140,4.0,5.0,96,0.00,,CLR,0.00,VWS V14.01,2013-04-14 09:05:00,
2013-04-14 05:10:00,46.5,45.2,29.97,SSE,151,4.0,4.0,95,0.00,,CLR,0.00,VWS V14.01,2013-04-14 09:10:00,
2013-04-14 05:15:00,46.5,45.4,29.97,SSE,163,4.0,4.0,96,0.00,,CLR,0.00,VWS V14.01,2013-04-14 09:15:00,
2013-04-14 05:20:00,46.5,45.4,29.97,South,169,2.0,5.0,96,0.00,,CLR,0.00,VWS V14.01,2013-04-14 09:20:00,
2013-04-14 05:25:00,46.5,45.4,29.97,SSE,166,2.0,2.0,96,0.00,,CLR,0.00,VWS V14.01,2013-04-14 09:25:00,
2013-04-14 05:30:00,46.4,45.0,29.97,SE,145,2.0,3.0,95,0.00,,CLR,0.00,VWS V14.01,2013-04-14 09:30:00,
2013-04-14 05:35:00,46.3,45.0,29.97,SSE,150,2.0,3.0,95,0.00,,CLR,0.00,VWS V14.01,2013-04-14 09:35:00,
2013-04-14 05:40:00,46.2,44.8,29.97,SSE,157,0.0,0.0,95,0.00,,CLR,0.00,VWS V14.01,2013-04-14 09:40:00,
2013-04-14 05:45:00,46.0,44.7,29.98,South,175,0.0,2.0,95,0.00,,CLR,0.00,VWS V14.01,2013-04-14 09:45:00,
2013-04-14 05:50:00,46.0,44.9,29.98,SW,230,0.0,1.0,96,0.00,,CLR,0.00,VWS V14.01,2013-04-14 09:50:00,
2013-04-14 05:55:00,45.8,44.5,29.98,SW,230,0.0,0.0,95,0.00,,CLR,0.00,VWS V14.01,2013-04-14 09:55:00,
2013-04-14 06:00:00,45.6,44.2,29.98,SW,225,1.0,1.0,95,0.00,,CLR,0.00,VWS V14.01,2013-04-14 10:00:00,
2013-04-14 06:05:00,45.3,44.0,29.99,West,263,1.0,2.0,95,0.00,,CLR,0.00,VWS V14.01,2013-04-14 10:05:00,
2013-04-14 06:10:00,45.1,43.8,29.99,WNW,283,1.0,2.0,95,0.00,,CLR,0.00,VWS V14.01,2013-04-14 10:10:00,
2013-04-14 06:15:00,45.0,43.9,30.00,WNW,283,1.0,2.0,96,0.00,,CLR,0.00,VWS V14.01,2013-04-14 10:15:00,
2013-04-14 06:20:00,44.6,43.3,30.00,WNW,286,3.0,3.0,95,0.00,,CLR,0.00,VWS V14.01,2013-04-14 10:20:00,
2013-04-14 06:25:00,44.4,43.3,30.00,West,281,3.0,3.0,96,0.00,,CLR,0.00,VWS V14.01,2013-04-14 10:25:00,
2013-04-14 06:30:00,44.4,43.3,30.00,WNW,288,2.0,3.0,96,0.00,,CLR,0.00,VWS V14.01,2013-04-14 10:30:00,
2013-04-14 06:35:00,44.3,43.2,30.01,WNW,288,2.0,3.0,96,0.00,,CLR,0.00,VWS V14.01,2013-04-14 10:35:00,
2013-04-14 06:40:00,44.2,43.1,30.01,West,280,2.0,3.0,96,0.00,,CLR,0.00,VWS V14.01,2013-04-14 10:40:00,
2013-04-14 06:45:00,44.3,43.2,30.01,WNW,283,3.0,3.0,96,0.00,,CLR,0.00,VWS V14.01,2013-04-14 10:45:00,
2013-04-14 06:50:00,44.4,43.3,30.02,West,280,2.0,2.0,96,0.00,,CLR,0.00,VWS V14.01,2013-04-14 10:50:00,
2013-04-14 06:55:00,44.7,43.9,30.02,West,259,3.0,3.0,97,0.00,,CLR,0.00,VWS V14.01,2013-04-14 10:55:00,
2013-04-14 07:00:00,44.9,44.1,30.02,West,280,1.0,1.0,97,0.00,,CLR,0.00,VWS V14.01,2013-04-14 11:00:00,
2013-04-14 07:05:00,45.1,44.0,30.03,West,280,1.0,1.0,96,0.00,,CLR,0.00,VWS V14.01,2013-04-14 11:05:00,
2013-04-14 07:10:00,45.5,44.7,30.03,WSW,243,1.0,3.0,97,0.00,,CLR,0.00,VWS V14.01,2013-04-14 11:10:00,
2013-04-14 07:15:00,46.1,45.3,30.03,SW,222,2.0,2.0,97,0.00,,CLR,0.00,VWS V14.01,2013-04-14 11:15:00,
2013-04-14 07:20:00,46.7,45.9,30.03,West,262,2.0,3.0,97,0.00,,CLR,0.00,VWS V14.01,2013-04-14 11:20:00,
2013-04-14 07:25:00,47.2,46.4,30.03,West,263,0.0,3.0,97,0.00,,CLR,0.00,VWS V14.01,2013-04-14 11:25:00,
2013-04-14 07:30:00,47.6,46.8,30.04,WSW,256,1.0,3.0,97,0.00,,CLR,0.00,VWS V14.01,2013-04-14 11:30:00,
2013-04-14 07:35:00,48.2,47.4,30.04,West,268,0.0,1.0,97,0.00,,CLR,0.00,VWS V14.01,2013-04-14 11:35:00,
2013-04-14 07:40:00,48.7,47.9,30.04,West,268,0.0,1.0,97,0.00,,CLR,0.00,VWS V14.01,2013-04-14 11:40:00,
2013-04-14 07:45:00,49.2,48.4,30.03,West,266,0.0,0.0,97,0.00,,CLR,0.00,VWS V14.01,2013-04-14 11:45:00,
2013-04-14 07:50:00,49.4,48.3,30.04,West,263,1.0,2.0,96,0.00,,CLR,0.00,VWS V14.01,2013-04-14 11:50:00,
2013-04-14 07:55:00,50.0,49.2,30.03,SE,144,0.0,0.0,97,0.00,,CLR,0.00,VWS V14.01,2013-04-14 11:55:00,
2013-04-14 08:00:00,50.1,48.7,30.03,West,281,0.0,1.0,95,0.00,,CLR,0.00,VWS V14.01,2013-04-14 12:00:00,
2013-04-14 08:05:00,50.3,48.6,30.03,NW,320,0.0,1.0,94,0.00,,CLR,0.00,VWS V14.01,2013-04-14 12:05:00,
2013-04-14 08:10:00,50.4,48.5,30.04,West,278,2.0,3.0,93,0.00,,CLR,0.00,VWS V14.01,2013-04-14 12:10:00,
2013-04-14 08:15:00,50.8,48.8,30.04,NW,304,3.0,3.0,93,0.00,,CLR,0.00,VWS V14.01,2013-04-14 12:15:00,
2013-04-14 08:20:00,51.1,48.9,30.04,NW,305,2.0,4.0,92,0.00,,CLR,0.00,VWS V14.01,2013-04-14 12:20:00,
2013-04-14 08:25:00,51.4,48.9,30.04,West,265,2.0,3.0,91,0.00,,CLR,0.00,VWS V14.01,2013-04-14 12:25:00,
2013-04-14 08:30:00,51.8,49.0,30.04,WNW,290,2.0,2.0,90,0.00,,CLR,0.00,VWS V14.01,2013-04-14 12:30:00,
2013-04-14 08:35:00,52.1,49.6,30.04,SW,229,4.0,5.0,91,0.00,,CLR,0.00,VWS V14.01,2013-04-14 12:35:00,
2013-04-14 08:40:00,52.6,49.8,30.05,WSW,240,4.0,6.0,90,0.00,,CLR,0.00,VWS V14.01,2013-04-14 12:40:00,
2013-04-14 08:45:00,53.2,49.7,30.05,SW,217,4.0,5.0,88,0.00,,CLR,0.00,VWS V14.01,2013-04-14 12:45:00,
2013-04-14 08:50:00,53.9,50.4,30.05,SSW,201,4.0,7.0,88,0.00,,CLR,0.00,VWS V14.01,2013-04-14 12:50:00,
2013-04-14 08:55:00,54.5,51.0,30.05,SSW,205,5.0,7.0,88,0.00,,CLR,0.00,VWS V14.01,2013-04-14 12:55:00,
2013-04-14 09:00:00,55.0,51.2,30.05,SSW,210,5.0,7.0,87,0.00,,CLR,0.00,VWS V14.01,2013-04-14 13:00:00,
2013-04-14 09:05:00,55.4,50.7,30.06,SW,234,2.0,5.0,84,0.00,,CLR,0.00,VWS V14.01,2013-04-14 13:05:00,
2013-04-14 09:10:00,56.0,50.9,30.06,WSW,245,5.0,7.0,83,0.00,,CLR,0.00,VWS V14.01,2013-04-14 13:10:00,
2013-04-14 09:15:00,56.5,50.8,30.06,WSW,252,7.0,8.0,81,0.00,,CLR,0.00,VWS V14.01,2013-04-14 13:15:00,
2013-04-14 09:20:00,56.6,50.8,30.06,WNW,300,12.0,14.0,81,0.00,,CLR,0.00,VWS V14.01,2013-04-14 13:20:00,
2013-04-14 09:25:00,55.3,49.9,30.06,WNW,294,11.0,11.0,82,0.00,,CLR,0.00,VWS V14.01,2013-04-14 13:25:00,
2013-04-14 09:30:00,54.9,49.8,30.06,WNW,294,7.0,10.0,83,0.00,,CLR,0.00,VWS V14.01,2013-04-14 13:30:00,
2013-04-14 09:35:00,55.0,50.3,30.06,WNW,288,8.0,8.0,84,0.00,,CLR,0.00,VWS V14.01,2013-04-14 13:35:00,
2013-04-14 09:40:00,55.1,49.4,30.06,WNW,291,7.0,9.0,81,0.00,,CLR,0.00,VWS V14.01,2013-04-14 13:40:00,
2013-04-14 09:45:00,55.4,50.0,30.06,WNW,286,7.0,10.0,82,0.00,,CLR,0.00,VWS V14.01,2013-04-14 13:45:00,
2013-04-14 09:50:00,55.8,50.4,30.06,WNW,291,9.0,10.0,82,0.00,,CLR,0.00,VWS V14.01,2013-04-14 13:50:00,
2013-04-14 09:55:00,55.8,49.7,30.07,West,280,5.0,9.0,80,0.00,,CLR,0.00,VWS V14.01,2013-04-14 13:55:00,
2013-04-14 10:00:00,55.8,49.0,30.07,West,269,8.0,10.0,78,0.00,,CLR,0.00,VWS V14.01,2013-04-14 14:00:00,
2013-04-14 10:05:00,56.1,49.3,30.07,WNW,292,8.0,9.0,78,0.00,,CLR,0.00,VWS V14.01,2013-04-14 14:05:00,
2013-04-14 10:10:00,56.2,48.4,30.07,West,279,6.0,7.0,75,0.00,,CLR,0.00,VWS V14.01,2013-04-14 14:10:00,
2013-04-14 10:15:00,56.2,49.1,30.07,West,259,4.0,6.0,77,0.00,,CLR,0.00,VWS V14.01,2013-04-14 14:15:00,
2013-04-14 10:20:00,56.7,49.2,30.07,WNW,292,10.0,10.0,76,0.00,,CLR,0.00,VWS V14.01,2013-04-14 14:20:00,
2013-04-14 10:25:00,56.9,49.1,30.07,West,279,7.0,10.0,75,0.00,,CLR,0.00,VWS V14.01,2013-04-14 14:25:00,
2013-04-14 10:30:00,56.7,48.5,30.07,West,273,8.0,10.0,74,0.00,,CLR,0.00,VWS V14.01,2013-04-14 14:30:00,
2013-04-14 10:35:00,56.8,48.6,30.07,West,267,7.0,8.0,74,0.00,,CLR,0.00,VWS V14.01,2013-04-14 14:35:00,
2013-04-14 10:40:00,57.1,49.3,30.07,WNW,283,8.0,9.0,75,0.00,,CLR,0.00,VWS V14.01,2013-04-14 14:40:00,
2013-04-14 10:45:00,57.2,49.0,30.07,West,280,6.0,10.0,74,0.00,,CLR,0.00,VWS V14.01,2013-04-14 14:45:00,
2013-04-14 10:50:00,57.7,49.8,30.08,WNW,285,13.0,13.0,75,0.00,,CLR,0.00,VWS V14.01,2013-04-14 14:50:00,
2013-04-14 10:55:00,57.4,49.5,30.08,West,279,13.0,14.0,75,0.00,,CLR,0.00,VWS V14.01,2013-04-14 14:55:00,
2013-04-14 11:00:00,57.3,49.8,30.08,WNW,301,11.0,12.0,76,0.00,,CLR,0.00,VWS V14.01,2013-04-14 15:00:00,
2013-04-14 11:05:00,57.2,49.0,30.08,WNW,297,13.0,15.0,74,0.00,,CLR,0.00,VWS V14.01,2013-04-14 15:05:00,
2013-04-14 11:10:00,57.5,48.6,30.09,WNW,283,14.0,16.0,72,0.00,,CLR,0.00,VWS V14.01,2013-04-14 15:10:00,
2013-04-14 11:15:00,57.9,48.9,30.09,WNW,298,13.0,15.0,72,0.00,,CLR,0.00,VWS V14.01,2013-04-14 15:15:00,
2013-04-14 11:20:00,57.9,49.3,30.08,NW,311,12.0,16.0,73,0.00,,CLR,0.00,VWS V14.01,2013-04-14 15:20:00,
2013-04-14 11:25:00,58.0,48.3,30.09,NW,304,11.0,16.0,70,0.00,,CLR,0.00,VWS V14.01,2013-04-14 15:25:00,
2013-04-14 11:30:00,58.5,48.4,30.09,NW,323,14.0,18.0,69,0.00,,CLR,0.00,VWS V14.01,2013-04-14 15:30:00,
2013-04-14 11:35:00,59.1,46.5,30.08,NW,308,11.0,15.0,63,0.00,,CLR,0.00,VWS V14.01,2013-04-14 15:35:00,
2013-04-14 11:40:00,59.6,46.6,30.08,NW,319,12.0,15.0,62,0.00,,CLR,0.00,VWS V14.01,2013-04-14 15:40:00,
2013-04-14 11:45:00,59.8,46.8,30.08,NW,307,8.0,17.0,62,0.00,,CLR,0.00,VWS V14.01,2013-04-14 15:45:00,
2013-04-14 11:50:00,59.6,44.8,30.09,NW,306,15.0,15.0,58,0.00,,CLR,0.00,VWS V14.01,2013-04-14 15:50:00,
2013-04-14 11:55:00,59.8,45.0,30.09,NW,321,14.0,15.0,58,0.00,,CLR,0.00,VWS V14.01,2013-04-14 15:55:00,
2013-04-14 12:00:00,60.0,45.7,30.09,NNW,344,11.0,14.0,59,0.00,,CLR,0.00,VWS V14.01,2013-04-14 16:00:00,
2013-04-14 12:05:00,60.0,44.3,30.09,NW,314,16.0,17.0,56,0.00,,CLR,0.00,VWS V14.01,2013-04-14 16:05:00,
2013-04-14 12:10:00,60.0,43.3,30.09,WNW,301,12.0,18.0,54,0.00,,CLR,0.00,VWS V14.01,2013-04-14 16:10:00,
2013-04-14 12:15:00,60.3,42.1,30.08,NW,320,16.0,21.0,51,0.00,,CLR,0.00,VWS V14.01,2013-04-14 16:15:00,
2013-04-14 12:20:00,60.2,42.0,30.09,NW,306,16.0,20.0,51,0.00,,CLR,0.00,VWS V14.01,2013-04-14 16:20:00,
2013-04-14 12:25:00,60.1,42.4,30.08,NW,320,13.0,15.0,52,0.00,,CLR,0.00,VWS V14.01,2013-04-14 16:25:00,
2013-04-14 12:30:00,60.5,41.8,30.09,WNW,290,16.0,16.0,50,0.00,,CLR,0.00,VWS V14.01,2013-04-14 16:30:00,
2013-04-14 12:35:00,60.3,43.1,30.09,NW,305,19.0,20.0,53,0.00,,CLR,0.00,VWS V14.01,2013-04-14 16:35:00,
2013-04-14 12:40:00,60.1,42.4,30.09,NW,319,16.0,17.0,52,0.00,,CLR,0.00,VWS V14.01,2013-04-14 16:40:00,
2013-04-14 12:45:00,60.0,43.3,30.08,NW,325,14.0,14.0,54,0.00,,CLR,0.00,VWS V14.01,2013-04-14 16:45:00,
2013-04-14 12:50:00,60.0,42.3,30.08,NW,321,9.0,16.0,52,0.00,,CLR,0.00,VWS V14.01,2013-04-14 16:50:00,
2013-04-14 12:55:00,60.7,44.5,30.08,NW,306,10.0,13.0,55,0.00,,CLR,0.00,VWS V14.01,2013-04-14 16:55:00,
2013-04-14 13:00:00,61.1,43.9,30.08,WNW,296,15.0,15.0,53,0.00,,CLR,0.00,VWS V14.01,2013-04-14 17:00:00,
2013-04-14 13:05:00,61.0,44.2,30.08,WNW,298,9.0,16.0,54,0.00,,CLR,0.00,VWS V14.01,2013-04-14 17:05:00,
2013-04-14 13:10:00,60.8,42.6,30.08,NNW,332,15.0,19.0,51,0.00,,CLR,0.00,VWS V14.01,2013-04-14 17:10:00,
2013-04-14 13:15:00,60.6,42.4,30.07,NW,306,11.0,15.0,51,0.00,,CLR,0.00,VWS V14.01,2013-04-14 17:15:00,
2013-04-14 13:20:00,61.1,43.9,30.07,NW,311,10.0,13.0,53,0.00,,CLR,0.00,VWS V14.01,2013-04-14 17:20:00,
2013-04-14 13:25:00,61.2,44.0,30.07,NNW,345,12.0,14.0,53,0.00,,CLR,0.00,VWS V14.01,2013-04-14 17:25:00,
2013-04-14 13:30:00,61.5,44.2,30.07,NW,307,9.0,10.0,53,0.00,,CLR,0.00,VWS V14.01,2013-04-14 17:30:00,
2013-04-14 13:35:00,61.8,43.0,30.07,NW,310,12.0,16.0,50,0.00,,CLR,0.00,VWS V14.01,2013-04-14 17:35:00,
2013-04-14 13:40:00,61.2,43.5,30.07,NW,321,10.0,17.0,52,0.00,,CLR,0.00,VWS V14.01,2013-04-14 17:40:00,
2013-04-14 13:45:00,61.6,43.8,30.07,NW,321,16.0,17.0,52,0.00,,CLR,0.00,VWS V14.01,2013-04-14 17:45:00,
2013-04-14 13:50:00,61.5,43.2,30.07,NW,313,13.0,18.0,51,0.00,,CLR,0.00,VWS V14.01,2013-04-14 17:50:00,
2013-04-14 13:55:00,61.5,43.7,30.08,NW,321,15.0,17.0,52,0.00,,CLR,0.00,VWS V14.01,2013-04-14 17:55:00,
2013-04-14 14:00:00,61.9,43.1,30.08,NW,308,12.0,14.0,50,0.00,,CLR,0.00,VWS V14.01,2013-04-14 18:00:00,
2013-04-14 14:05:00,61.8,41.4,30.08,NW,314,9.0,12.0,47,0.00,,CLR,0.00,VWS V14.01,2013-04-14 18:05:00,
2013-04-14 14:10:00,62.3,42.9,30.08,NW,315,17.0,17.0,49,0.00,,CLR,0.00,VWS V14.01,2013-04-14 18:10:00,
2013-04-14 14:15:00,62.1,42.7,30.07,WNW,297,14.0,18.0,49,0.00,,CLR,0.00,VWS V14.01,2013-04-14 18:15:00,
2013-04-14 14:20:00,62.1,41.7,30.07,NW,319,12.0,16.0,47,0.00,,CLR,0.00,VWS V14.01,2013-04-14 18:20:00,
2013-04-14 14:25:00,62.0,43.2,30.07,NNW,340,12.0,18.0,50,0.00,,CLR,0.00,VWS V14.01,2013-04-14 18:25:00,
2013-04-14 14:30:00,62.4,42.5,30.07,NW,315,13.0,16.0,48,0.00,,CLR,0.00,VWS V14.01,2013-04-14 18:30:00,
2013-04-14 14:35:00,62.3,43.4,30.07,WNW,300,14.0,14.0,50,0.00,,CLR,0.00,VWS V14.01,2013-04-14 18:35:00,
2013-04-14 14:40:00,62.5,42.6,30.07,NNW,327,14.0,17.0,48,0.00,,CLR,0.00,VWS V14.01,2013-04-14 18:40:00,
2013-04-14 14:45:00,62.3,42.9,30.07,NW,319,15.0,17.0,49,0.00,,CLR,0.00,VWS V14.01,2013-04-14 18:45:00,
2013-04-14 14:50:00,62.4,42.5,30.07,NNW,348,14.0,14.0,48,0.00,,CLR,0.00,VWS V14.01,2013-04-14 18:50:00,
2013-04-14 14:55:00,62.5,43.1,30.07,NNW,344,17.0,17.0,49,0.00,,CLR,0.00,VWS V14.01,2013-04-14 18:55:00,
2013-04-14 15:00:00,62.2,42.3,30.07,NNW,333,11.0,13.0,48,0.00,,CLR,0.00,VWS V14.01,2013-04-14 19:00:00,
2013-04-14 15:05:00,62.7,42.2,30.07,NNW,327,13.0,13.0,47,0.00,,CLR,0.00,VWS V14.01,2013-04-14 19:05:00,
2013-04-14 15:10:00,62.3,41.8,30.07,NNW,331,11.0,11.0,47,0.00,,CLR,0.00,VWS V14.01,2013-04-14 19:10:00,
2013-04-14 15:15:00,62.9,42.4,30.07,WNW,299,7.0,14.0,47,0.00,,CLR,0.00,VWS V14.01,2013-04-14 19:15:00,
2013-04-14 15:20:00,62.5,40.9,30.06,WNW,286,12.0,13.0,45,0.00,,CLR,0.00,VWS V14.01,2013-04-14 19:20:00,
2013-04-14 15:25:00,62.9,40.7,30.07,NW,307,8.0,8.0,44,0.00,,CLR,0.00,VWS V14.01,2013-04-14 19:25:00,
2013-04-14 15:30:00,62.8,41.2,30.07,WNW,301,6.0,12.0,45,0.00,,CLR,0.00,VWS V14.01,2013-04-14 19:30:00,
2013-04-14 15:35:00,62.8,42.3,30.06,NW,319,7.0,11.0,47,0.00,,CLR,0.00,VWS V14.01,2013-04-14 19:35:00,
2013-04-14 15:40:00,62.9,42.9,30.06,NW,326,9.0,14.0,48,0.00,,CLR,0.00,VWS V14.01,2013-04-14 19:40:00,
2013-04-14 15:45:00,62.6,41.0,30.06,NNW,329,11.0,13.0,45,0.00,,CLR,0.00,VWS V14.01,2013-04-14 19:45:00,
2013-04-14 15:50:00,62.9,42.4,30.06,NNW,340,11.0,13.0,47,0.00,,CLR,0.00,VWS V14.01,2013-04-14 19:50:00,
2013-04-14 15:55:00,62.8,40.6,30.06,NNW,329,9.0,12.0,44,0.00,,CLR,0.00,VWS V14.01,2013-04-14 19:55:00,
2013-04-14 16:00:00,63.2,41.0,30.06,North,350,12.0,15.0,44,0.00,,CLR,0.00,VWS V14.01,2013-04-14 20:00:00,
2013-04-14 16:05:00,62.6,41.5,30.06,NNW,327,12.0,15.0,46,0.00,,CLR,0.00,VWS V14.01,2013-04-14 20:05:00,
2013-04-14 16:10:00,62.7,41.6,30.06,NNW,345,13.0,14.0,46,0.00,,CLR,0.00,VWS V14.01,2013-04-14 20:10:00,
2013-04-14 16:15:00,63.1,40.9,30.07,North,349,9.0,10.0,44,0.00,,CLR,0.00,VWS V14.01,2013-04-14 20:15:00,
2013-04-14 16:20:00,63.0,40.8,30.07,NNW,346,11.0,13.0,44,0.00,,CLR,0.00,VWS V14.01,2013-04-14 20:20:00,
2013-04-14 16:25:00,62.7,40.5,30.07,NW,325,7.0,11.0,44,0.00,,CLR,0.00,VWS V14.01,2013-04-14 20:25:00,
2013-04-14 16:30:00,62.5,40.3,30.07,North,355,10.0,12.0,44,0.00,,CLR,0.00,VWS V14.01,2013-04-14 20:30:00,
2013-04-14 16:35:00,62.9,40.1,30.07,NW,321,6.0,9.0,43,0.00,,CLR,0.00,VWS V14.01,2013-04-14 20:35:00,
2013-04-14 16:40:00,62.8,40.0,30.07,NW,311,11.0,12.0,43,0.00,,CLR,0.00,VWS V14.01,2013-04-14 20:40:00,
2013-04-14 16:45:00,63.4,41.1,30.08,NNW,344,12.0,14.0,44,0.00,,CLR,0.00,VWS V14.01,2013-04-14 20:45:00,
2013-04-14 16:50:00,62.9,38.9,30.08,NW,326,12.0,14.0,41,0.00,,CLR,0.00,VWS V14.01,2013-04-14 20:50:00,
2013-04-14 16:55:00,62.3,41.3,30.08,NNW,340,13.0,14.0,46,0.00,,CLR,0.00,VWS V14.01,2013-04-14 20:55:00,
2013-04-14 17:00:00,62.4,41.9,30.08,NNW,331,10.0,13.0,47,0.00,,CLR,0.00,VWS V14.01,2013-04-14 21:00:00,
2013-04-14 17:05:00,62.3,39.5,30.08,North,355,12.0,12.0,43,0.00,,CLR,0.00,VWS V14.01,2013-04-14 21:05:00,
2013-04-14 17:10:00,62.3,41.3,30.08,NNW,341,8.0,11.0,46,0.00,,CLR,0.00,VWS V14.01,2013-04-14 21:10:00,
2013-04-14 17:15:00,62.1,40.5,30.08,NNW,346,8.0,8.0,45,0.00,,CLR,0.00,VWS V14.01,2013-04-14 21:15:00,
2013-04-14 17:20:00,62.0,41.0,30.08,NW,317,10.0,11.0,46,0.00,,CLR,0.00,VWS V14.01,2013-04-14 21:20:00,
2013-04-14 17:25:00,62.3,39.5,30.09,NNW,345,10.0,11.0,43,0.00,,CLR,0.00,VWS V14.01,2013-04-14 21:25:00,
2013-04-14 17:30:00,62.1,39.4,30.08,NNW,331,10.0,11.0,43,0.00,,CLR,0.00,VWS V14.01,2013-04-14 21:30:00,
2013-04-14 17:35:00,61.8,39.7,30.09,NNW,327,7.0,10.0,44,0.00,,CLR,0.00,VWS V14.01,2013-04-14 21:35:00,
2013-04-14 17:40:00,61.7,40.2,30.09,NNW,348,12.0,13.0,45,0.00,,CLR,0.00,VWS V14.01,2013-04-14 21:40:00,
2013-04-14 17:45:00,62.0,39.3,30.09,NNW,330,5.0,8.0,43,0.00,,CLR,0.00,VWS V14.01,2013-04-14 21:45:00,
2013-04-14 17:50:00,62.1,40.5,30.09,NW,322,8.0,9.0,45,0.00,,CLR,0.00,VWS V14.01,2013-04-14 21:50:00,
2013-04-14 17:55:00,62.1,38.8,30.09,NNW,339,6.0,6.0,42,0.00,,CLR,0.00,VWS V14.01,2013-04-14 21:55:00,
2013-04-14 18:00:00,62.0,41.0,30.09,North,360,8.0,9.0,46,0.00,,CLR,0.00,VWS V14.01,2013-04-14 22:00:00,
2013-04-14 18:05:00,61.7,40.2,30.10,NNW,327,6.0,8.0,45,0.00,,CLR,0.00,VWS V14.01,2013-04-14 22:05:00,
2013-04-14 18:10:00,61.4,41.0,30.10,NW,324,8.0,9.0,47,0.00,,CLR,0.00,VWS V14.01,2013-04-14 22:10:00,
2013-04-14 18:15:00,61.2,40.3,30.10,NNW,337,9.0,10.0,46,0.00,,CLR,0.00,VWS V14.01,2013-04-14 22:15:00,
2013-04-14 18:20:00,61.1,40.2,30.10,NNW,329,8.0,8.0,46,0.00,,CLR,0.00,VWS V14.01,2013-04-14 22:20:00,
2013-04-14 18:25:00,61.0,39.5,30.10,NNW,331,8.0,8.0,45,0.00,,CLR,0.00,VWS V14.01,2013-04-14 22:25:00,
2013-04-14 18:30:00,60.9,40.0,30.10,North,5,4.0,6.0,46,0.00,,CLR,0.00,VWS V14.01,2013-04-14 22:30:00,
2013-04-14 18:35:00,60.8,39.9,30.11,North,350,6.0,6.0,46,0.00,,CLR,0.00,VWS V14.01,2013-04-14 22:35:00,
2013-04-14 18:40:00,60.7,40.9,30.11,NNW,333,2.0,4.0,48,0.00,,CLR,0.00,VWS V14.01,2013-04-14 22:40:00,
2013-04-14 18:45:00,60.7,40.9,30.11,NW,326,2.0,3.0,48,0.00,,CLR,0.00,VWS V14.01,2013-04-14 22:45:00,
2013-04-14 18:50:00,60.6,39.2,30.11,NNW,348,2.0,4.0,45,0.00,,CLR,0.00,VWS V14.01,2013-04-14 22:50:00,
2013-04-14 18:55:00,60.5,41.3,30.11,NNW,344,6.0,6.0,49,0.00,,CLR,0.00,VWS V14.01,2013-04-14 22:55:00,
2013-04-14 19:00:00,60.4,40.6,30.11,NW,310,3.0,3.0,48,0.00,,CLR,0.00,VWS V14.01,2013-04-14 23:00:00,
2013-04-14 19:05:00,60.2,41.5,30.11,NNW,327,3.0,3.0,50,0.00,,CLR,0.00,VWS V14.01,2013-04-14 23:05:00,
2013-04-14 19:10:00,60.0,40.3,30.11,NW,315,2.0,3.0,48,0.00,,CLR,0.00,VWS V14.01,2013-04-14 23:10:00,
2013-04-14 19:15:00,59.8,40.1,30.12,West,272,1.0,1.0,48,0.00,,CLR,0.00,VWS V14.01,2013-04-14 23:15:00,
2013-04-14 19:20:00,59.4,44.2,30.12,South,184,5.0,8.0,57,0.00,,CLR,0.00,VWS V14.01,2013-04-14 23:20:00,
2013-04-14 19:25:00,58.3,43.6,30.12,SSW,213,4.0,4.0,58,0.00,,CLR,0.00,VWS V14.01,2013-04-14 23:25:00,
2013-04-14 19:30:00,57.4,43.6,30.12,SSW,204,6.0,8.0,60,0.00,,CLR,0.00,VWS V14.01,2013-04-14 23:30:00,
2013-04-14 19:35:00,56.7,43.0,30.12,South,190,6.0,7.0,60,0.00,,CLR,0.00,VWS V14.01,2013-04-14 23:35:00,
2013-04-14 19:40:00,56.2,42.5,30.13,SSW,207,6.0,7.0,60,0.00,,CLR,0.00,VWS V14.01,2013-04-14 23:40:00,
2013-04-14 19:45:00,55.8,43.0,30.13,SSW,202,4.0,7.0,62,0.00,,CLR,0.00,VWS V14.01,2013-04-14 23:45:00,
2013-04-14 19:50:00,55.3,44.2,30.13,SSW,202,7.0,10.0,66,0.00,,CLR,0.00,VWS V14.01,2013-04-14 23:50:00,
2013-04-14 19:55:00,54.8,43.7,30.14,South,190,7.0,7.0,66,0.00,,CLR,0.00,VWS V14.01,2013-04-14 23:55:00,
2013-04-14 20:00:00,54.4,43.7,30.14,SSW,201,5.0,7.0,67,0.00,,CLR,0.00,VWS V14.01,2013-04-15 00:00:00,
2013-04-14 20:05:00,54.1,43.8,30.14,SSW,201,4.0,6.0,68,0.00,,CLR,0.00,VWS V14.01,2013-04-15 00:05:00,
2013-04-14 20:10:00,53.8,43.9,30.14,SSW,197,3.0,6.0,69,0.00,,CLR,0.00,VWS V14.01,2013-04-15 00:10:00,
2013-04-14 20:15:00,53.6,43.7,30.14,SSW,192,5.0,5.0,69,0.00,,CLR,0.00,VWS V14.01,2013-04-15 00:15:00,
2013-04-14 20:20:00,53.4,44.2,30.14,SSW,201,4.0,4.0,71,0.00,,CLR,0.00,VWS V14.01,2013-04-15 00:20:00,
2013-04-14 20:25:00,53.2,44.8,30.14,SSW,198,2.0,4.0,73,0.00,,CLR,0.00,VWS V14.01,2013-04-15 00:25:00,
2013-04-14 20:30:00,53.0,44.6,30.14,SSW,200,3.0,4.0,73,0.00,,CLR,0.00,VWS V14.01,2013-04-15 00:30:00,
2013-04-14 20:35:00,52.9,44.8,30.14,SSW,205,3.0,4.0,74,0.00,,CLR,0.00,VWS V14.01,2013-04-15 00:35:00,
2013-04-14 20:40:00,52.8,44.0,30.14,SSW,211,4.0,5.0,72,0.00,,CLR,0.00,VWS V14.01,2013-04-15 00:40:00,
2013-04-14 20:45:00,52.8,44.4,30.15,SSW,213,2.0,4.0,73,0.00,,CLR,0.00,VWS V14.01,2013-04-15 00:45:00,
2013-04-14 20:50:00,52.8,44.4,30.15,South,184,4.0,6.0,73,0.00,,CLR,0.00,VWS V14.01,2013-04-15 00:50:00,
2013-04-14 20:55:00,52.7,45.0,30.15,South,188,4.0,4.0,75,0.00,,CLR,0.00,VWS V14.01,2013-04-15 00:55:00,
2013-04-14 21:00:00,52.5,45.2,30.15,South,188,3.0,3.0,76,0.00,,CLR,0.00,VWS V14.01,2013-04-15 01:00:00,
2013-04-14 21:05:00,52.2,44.9,30.15,SSW,198,7.0,7.0,76,0.00,,CLR,0.00,VWS V14.01,2013-04-15 01:05:00,
2013-04-14 21:10:00,52.1,45.5,30.15,SSW,198,6.0,6.0,78,0.00,,CLR,0.00,VWS V14.01,2013-04-15 01:10:00,
2013-04-14 21:15:00,51.9,45.6,30.15,SSW,205,5.0,5.0,79,0.00,,CLR,0.00,VWS V14.01,2013-04-15 01:15:00,
2013-04-14 21:20:00,51.8,45.5,30.15,SSW,196,5.0,5.0,79,0.00,,CLR,0.00,VWS V14.01,2013-04-15 01:20:00,
2013-04-14 21:25:00,51.6,45.6,30.15,SSW,208,4.0,4.0,80,0.00,,CLR,0.00,VWS V14.01,2013-04-15 01:25:00,
2013-04-14 21:30:00,51.5,45.5,30.15,SSW,206,5.0,7.0,80,0.00,,CLR,0.00,VWS V14.01,2013-04-15 01:30:00,
2013-04-14 21:35:00,51.5,45.9,30.15,SSW,207,6.0,6.0,81,0.00,,CLR,0.00,VWS V14.01,2013-04-15 01:35:00,
2013-04-14 21:40:00,51.5,45.9,30.15,SSW,209,4.0,4.0,81,0.00,,CLR,0.00,VWS V14.01,2013-04-15 01:40:00,
2013-04-14 21:45:00,51.4,45.8,30.15,SSW,197,3.0,3.0,81,0.00,,CLR,0.00,VWS V14.01,2013-04-15 01:45:00,
2013-04-14 21:50:00,51.4,45.8,30.16,SSW,203,5.0,6.0,81,0.00,,CLR,0.00,VWS V14.01,2013-04-15 01:50:00,
2013-04-14 21:55:00,51.3,45.7,30.15,South,188,2.0,5.0,81,0.00,,CLR,0.00,VWS V14.01,2013-04-15 01:55:00,
2013-04-14 22:00:00,51.2,45.6,30.15,South,189,2.0,2.0,81,0.00,,CLR,0.00,VWS V14.01,2013-04-15 02:00:00,
2013-04-14 22:05:00,51.1,45.5,30.15,South,172,2.0,2.0,81,0.00,,CLR,0.00,VWS V14.01,2013-04-15 02:05:00,
2013-04-14 22:10:00,50.9,45.3,30.14,SE,146,1.0,2.0,81,0.00,,CLR,0.00,VWS V14.01,2013-04-15 02:10:00,
2013-04-14 22:15:00,50.8,45.5,30.14,ESE,113,1.0,1.0,82,0.00,,CLR,0.00,VWS V14.01,2013-04-15 02:15:00,
2013-04-14 22:20:00,50.6,45.3,30.14,ESE,113,2.0,2.0,82,0.00,,CLR,0.00,VWS V14.01,2013-04-15 02:20:00,
2013-04-14 22:25:00,50.4,45.4,30.14,East,92,2.0,2.0,83,0.00,,CLR,0.00,VWS V14.01,2013-04-15 02:25:00,
2013-04-14 22:30:00,50.3,45.7,30.14,East,92,1.0,1.0,84,0.00,,CLR,0.00,VWS V14.01,2013-04-15 02:30:00,
2013-04-14 22:35:00,50.2,45.6,30.14,SSE,161,0.0,2.0,84,0.00,,CLR,0.00,VWS V14.01,2013-04-15 02:35:00,
2013-04-14 22:40:00,50.1,45.5,30.14,SSE,160,1.0,2.0,84,0.00,,CLR,0.00,VWS V14.01,2013-04-15 02:40:00,
2013-04-14 22:45:00,50.1,45.5,30.14,SE,141,1.0,2.0,84,0.00,,CLR,0.00,VWS V14.01,2013-04-15 02:45:00,
2013-04-14 22:50:00,50.1,45.5,30.13,SE,136,3.0,3.0,84,0.00,,CLR,0.00,VWS V14.01,2013-04-15 02:50:00,
2013-04-14 22:55:00,50.1,45.8,30.13,SE,132,3.0,3.0,85,0.00,,CLR,0.00,VWS V14.01,2013-04-15 02:55:00,
2013-04-14 23:00:00,50.1,45.8,30.12,ESE,119,3.0,3.0,85,0.00,,CLR,0.00,VWS V14.01,2013-04-15 03:00:00,
2013-04-14 23:05:00,50.0,46.0,30.12,ESE,105,3.0,4.0,86,0.00,,CLR,0.00,VWS V14.01,2013-04-15 03:05:00,
2013-04-14 23:10:00,50.0,46.0,30.12,SE,126,3.0,3.0,86,0.00,,CLR,0.00,VWS V14.01,2013-04-15 03:10:00,
2013-04-14 23:15:00,50.0,46.0,30.12,ESE,122,4.0,5.0,86,0.00,,CLR,0.00,VWS V14.01,2013-04-15 03:15:00,
2013-04-14 23:20:00,50.2,46.2,30.12,SE,144,2.0,5.0,86,0.00,,CLR,0.00,VWS V14.01,2013-04-15 03:20:00,
2013-04-14 23:25:00,50.4,46.1,30.12,SE,146,4.0,5.0,85,0.00,,CLR,0.00,VWS V14.01,2013-04-15 03:25:00,
2013-04-14 23:30:00,50.5,46.2,30.12,SE,145,2.0,5.0,85,0.00,,CLR,0.00,VWS V14.01,2013-04-15 03:30:00,
2013-04-14 23:35:00,50.5,45.8,30.12,SE,146,2.0,3.0,84,0.00,,CLR,0.00,VWS V14.01,2013-04-15 03:35:00,
2013-04-14 23:40:00,50.6,46.0,30.12,SSE,154,4.0,5.0,84,0.00,,CLR,0.00,VWS V14.01,2013-04-15 03:40:00,
2013-04-14 23:45:00,50.6,46.3,30.13,SSE,163,4.0,4.0,85,0.00,,CLR,0.00,VWS V14.01,2013-04-15 03:45:00,
2013-04-14 23:50:00,50.6,46.3,30.13,SSE,166,4.0,4.0,85,0.00,,CLR,0.00,VWS V14.01,2013-04-15 03:50:00,
2013-04-14 23:55:00,50.6,46.6,30.13,South,172,1.0,3.0,86,0.00,,CLR,0.00,VWS V14.01,2013-04-15 03:55:00,